Regional Weather Roundup
Issued by NWS State College, PA

Home | Current Version | Previous Version | Graphics & Text | Print | Product List | Glossary Off
Versions: 1 2 3 4 5 6 7 8 9 10 11 12 13 14 15 16 17 18 19 20 21 22 23 24 25 26 27 28 29 30 31 32 33 34 35 36 37 38 39 40 41 42 43 44 45 46 47 48 49 50

016
ASUS41 KCTP 082103
RWRCTP

REGIONAL WEATHER ROUNDUP
NATIONAL WEATHER SERVICE STATE COLLEGE PA
400 PM EST MON FEB 08 2016

Note: "fair" indicates few or no clouds below 12,000 feet with no
significant weather and/or obstructions to visibility.

* = STATION THAT DOES NOT REPORT PRECIPITATION /E.G. RAIN...SNOW...ETC/
    THUNDER OR FOG.

PAZ002>004-007>009-013>016-020>023-029>032-082200-
WESTERN PENNSYLVANIA

CITY           SKY/WX    TMP DP  RH WIND       PRES   REMARKS
ERIE           CLOUDY    42  31  64 SE7       29.54F
MEADVILLE      CLOUDY    41  27  57 S5        29.51S
FRANKLIN*      CLOUDY    39  25  56 S20G25    29.54R
NEW CASTLE     LGT RAIN  37  34  89 S9        29.56R
BEAVER COUNTY  DRIZZLE   36  34  93 S8        29.55S
BUTLER*        CLOUDY    36  30  80 S8G16     29.60R
PITTSBURGH INT CLOUDY    37  33  85 S10       29.56S
PITTSBURGH     LGT RAIN  39  34  82 S8        29.56S
INDIANA*       PTSUNNY   43  23  45 S13       29.58S
LATROBE        LGT RAIN  41  32  70 SW17G29   29.58R
WASHINGTON CO* CLOUDY    37  32  81 S8        29.57S
$$

PAZ004>006-010>012-017>019-024>028-033>037-041-042-045-046-049>053-082200-
CENTRAL PENNSYLVANIA

CITY           SKY/WX    TMP DP  RH WIND       PRES   REMARKS
BRADFORD       CLOUDY    38  20  48 SE8G17    29.54F
DUBOIS         CLOUDY    40  21  46 SE14      29.54S
CLEARFIELD     CLOUDY    40  20  44 SE5       29.58S
JOHNSTOWN      MOSUNNY   37  18  46 SE10      29.54R
ALTOONA        CLOUDY    38  19  46 S8        29.59F
STATE COLLEGE  PTSUNNY   39  21  48 SE7       29.61S
WILLIAMSPORT   CLOUDY    42  24  49 SE6       29.65F
SELINSGROVE    CLOUDY    43  26  51 SE8       29.66F
FT INDIANTOWN  CLOUDY    40  27  60 E6        29.67F
CAPITAL CITY   PTSUNNY   42  26  53 E7        29.67F
HARRISBURG     PTSUNNY   41  27  57 E10       29.67F
YORK           CLOUDY    43  27  53 MISG      29.67S
$$

PAZ038>040-043-044-047-048-054-055-060>062-067>071-082200-
EASTERN PENNSYLVANIA

CITY           SKY/WX    TMP DP  RH WIND       PRES   REMARKS
SCRANTON       CLOUDY    40  21  46 VRB3      29.66R
MOUNT POCONO   CLOUDY    32  15  49 SE6       29.64R
ALLENTOWN      CLOUDY    40  22  48 NE8       29.71R
QUAKERTOWN*      N/A     39  25  56 SE5       29.71R
READING        CLOUDY    40  25  55 E3        29.70R
LANCASTER      CLOUDY    38  29  70 E8        29.69S
COATESVILLE    CLOUDY    37  28  70 N5        29.71R
POTTSTOWN      CLOUDY    39  26  59 S3        29.72R
BLUE BELL        N/A     37  28  70 CALM      29.70R
DOYLESTOWN     CLOUDY    38  22  52 NE7       29.70R
WILLOW GROVE   NOT AVBL
NORTH PHILA    CLOUDY    41  26  55 E10       29.73R
PHILADELPHIA   CLOUDY    42  25  50 SE3       29.73R
$$




USA.gov is the U.S. government's official web portal to all federal, state and local government web resources and services.